Location: Banksville Park
(38.5557°N, 75.1182°W)
Time: 01:48:09
(UTC+00:00)

Lacrosse 5 - Pass Details

Date: 19 September 2020
Orbit: 716 x 723 km, 57.0° (Epoch: 28 October)

Event Time Altitude Azimuth Distance (km) Brightness Sun altitude
Exits shadow 08:05:17 37° 11° (N) 1,119 3.1 -30.8°
Drops below altitude 10° 08:08:34 10° 34° (NE) 2,205 5.1 -30.2°
Sets 08:11:01 0° 40° (NE) 3,129 6.2 -29.8°
